Time,TemperatureF,DewpointF,PressureIn,WindDirection,WindDirectionDegrees,WindSpeedMPH,WindSpeedGustMPH,Humidity,HourlyPrecipIn,Conditions,Clouds,dailyrainin,SoftwareType,DateUTC
2013-06-02 02:52:00,53.0,53.0,-100.00,NNW,332,3.0,-999.0,100,-99.99,,,-99.99,,2013-06-02 06:52:00,
2013-06-02 03:02:00,53.0,53.0,-100.00,NNW,332,3.0,-999.0,100,-99.99,,,-99.99,,2013-06-02 07:02:00,
2013-06-02 03:11:00,53.0,53.0,-100.00,NNW,332,3.0,-999.0,100,-99.99,,,-99.99,,2013-06-02 07:11:00,
2013-06-02 03:52:00,54.0,54.0,-100.00,West,278,9.0,-999.0,100,-99.99,,,-99.99,,2013-06-02 07:52:00,
2013-06-02 04:02:00,54.0,54.0,-100.00,West,278,9.0,-999.0,100,-99.99,,,-99.99,,2013-06-02 08:02:00,
2013-06-02 04:12:00,54.0,54.0,-100.00,West,278,9.0,-999.0,100,-99.99,,,-99.99,,2013-06-02 08:12:00,
2013-06-02 04:22:00,53.0,53.0,-100.00,West,264,8.0,-999.0,100,-99.99,,,-99.99,,2013-06-02 08:22:00,
2013-06-02 04:32:00,54.0,54.0,-100.00,West,280,9.0,-999.0,100,-99.99,,,-99.99,,2013-06-02 08:32:00,
2013-06-02 04:42:00,54.0,54.0,-100.00,West,280,9.0,-999.0,100,-99.99,,,-99.99,,2013-06-02 08:42:00,
2013-06-02 04:52:00,53.0,53.0,-100.00,West,280,9.0,-999.0,100,-99.99,,,-99.99,,2013-06-02 08:52:00,
2013-06-02 05:01:00,53.0,53.0,-100.00,West,280,9.0,-999.0,100,-99.99,,,-99.99,,2013-06-02 09:01:00,
2013-06-02 05:11:00,52.0,52.0,-100.00,West,280,9.0,-999.0,100,-99.99,,,-99.99,,2013-06-02 09:11:00,
2013-06-02 05:21:00,51.0,51.0,-100.00,WNW,282,8.0,-999.0,100,-99.99,,,-99.99,,2013-06-02 09:21:00,
2013-06-02 05:33:00,48.0,48.0,-100.00,WNW,292,9.0,-999.0,100,-99.99,,,-99.99,,2013-06-02 09:33:00,
2013-06-02 05:43:00,48.0,48.0,-100.00,WNW,292,9.0,-999.0,100,-99.99,,,-99.99,,2013-06-02 09:43:00,
2013-06-02 05:53:00,47.0,47.0,-100.00,WNW,292,9.0,-999.0,100,-99.99,,,-99.99,,2013-06-02 09:53:00,
2013-06-02 06:02:00,47.0,47.0,-100.00,WNW,292,9.0,-999.0,100,-99.99,,,-99.99,,2013-06-02 10:02:00,
2013-06-02 06:12:00,46.0,46.0,-100.00,WNW,292,9.0,-999.0,100,-99.99,,,-99.99,,2013-06-02 10:12:00,
2013-06-02 06:23:00,45.0,45.0,-100.00,WNW,292,9.0,-999.0,100,-99.99,,,-99.99,,2013-06-02 10:23:00,
2013-06-02 06:33:00,45.0,45.0,-100.00,WNW,298,10.0,-999.0,100,-99.99,,,-99.99,,2013-06-02 10:33:00,
2013-06-02 06:42:00,45.0,45.0,-100.00,WNW,298,10.0,-999.0,100,-99.99,,,-99.99,,2013-06-02 10:42:00,
2013-06-02 06:52:00,44.0,44.0,-100.00,WNW,286,12.0,-999.0,100,-99.99,,,-99.99,,2013-06-02 10:52:00,
2013-06-02 07:02:00,44.0,44.0,-100.00,WNW,286,12.0,-999.0,100,-99.99,,,-99.99,,2013-06-02 11:02:00,
2013-06-02 07:12:00,44.0,44.0,-100.00,WNW,286,12.0,-999.0,100,-99.99,,,-99.99,,2013-06-02 11:12:00,
2013-06-02 07:22:00,44.0,44.0,-100.00,NW,304,14.0,-999.0,100,-99.99,,,-99.99,,2013-06-02 11:22:00,
2013-06-02 07:32:00,44.0,44.0,-100.00,NW,308,15.0,-999.0,100,-99.99,,,-99.99,,2013-06-02 11:32:00,
2013-06-02 07:42:00,44.0,44.0,-100.00,NW,308,15.0,-999.0,100,-99.99,,,-99.99,,2013-06-02 11:42:00,
2013-06-02 07:52:00,43.0,43.0,-100.00,NW,308,15.0,-999.0,100,-99.99,,,-99.99,,2013-06-02 11:52:00,
2013-06-02 08:02:00,43.0,43.0,-100.00,NW,308,15.0,-999.0,100,-99.99,,,-99.99,,2013-06-02 12:02:00,
2013-06-02 08:11:00,43.0,43.0,-100.00,NW,308,15.0,-999.0,100,-99.99,,,-99.99,,2013-06-02 12:11:00,
2013-06-02 08:22:00,43.0,41.0,-100.00,NW,310,13.0,-999.0,93,-99.99,,,-99.99,,2013-06-02 12:22:00,
2013-06-02 08:32:00,43.0,43.0,-100.00,NW,310,14.0,-999.0,100,-99.99,,,-99.99,,2013-06-02 12:32:00,
2013-06-02 08:42:00,43.0,43.0,-100.00,NW,310,14.0,-999.0,100,-99.99,,,-99.99,,2013-06-02 12:42:00,
2013-06-02 08:52:00,43.0,43.0,-100.00,NW,310,14.0,-999.0,99,-99.99,,,-99.99,,2013-06-02 12:52:00,
2013-06-02 09:01:00,43.0,43.0,-100.00,NW,310,14.0,-999.0,99,-99.99,,,-99.99,,2013-06-02 13:01:00,
2013-06-02 09:12:00,43.0,43.0,-100.00,NW,310,14.0,-999.0,100,-99.99,,,-99.99,,2013-06-02 13:12:00,
2013-06-02 09:22:00,43.0,43.0,-100.00,NW,310,14.0,-999.0,99,-99.99,,,-99.99,,2013-06-02 13:22:00,
2013-06-02 09:32:00,43.0,43.0,-100.00,NW,314,16.0,-999.0,100,-99.99,,,-99.99,,2013-06-02 13:32:00,
2013-06-02 09:42:00,43.0,43.0,-100.00,NW,314,16.0,-999.0,99,-99.99,,,-99.99,,2013-06-02 13:42:00,
2013-06-02 09:52:00,43.0,43.0,-100.00,NW,314,16.0,-999.0,100,-99.99,,,-99.99,,2013-06-02 13:52:00,
2013-06-02 10:02:00,43.0,43.0,-100.00,NW,314,16.0,-999.0,99,-99.99,,,-99.99,,2013-06-02 14:02:00,
2013-06-02 10:11:00,43.0,43.0,-100.00,NW,314,16.0,-999.0,100,-99.99,,,-99.99,,2013-06-02 14:11:00,
2013-06-02 10:22:00,43.0,43.0,-100.00,WNW,298,16.0,-999.0,100,-99.99,,,-99.99,,2013-06-02 14:22:00,
2013-06-02 10:32:00,43.0,43.0,-100.00,WNW,302,16.0,-999.0,99,-99.99,,,-99.99,,2013-06-02 14:32:00,
2013-06-02 10:42:00,43.0,43.0,-100.00,WNW,302,16.0,-999.0,99,-99.99,,,-99.99,,2013-06-02 14:42:00,
2013-06-02 10:52:00,43.0,43.0,-100.00,WNW,302,16.0,-999.0,97,-99.99,,,-99.99,,2013-06-02 14:52:00,
2013-06-02 11:01:00,43.0,43.0,-100.00,WNW,302,16.0,-999.0,97,-99.99,,,-99.99,,2013-06-02 15:01:00,
2013-06-02 11:11:00,43.0,43.0,-100.00,WNW,302,16.0,-999.0,98,-99.99,,,-99.99,,2013-06-02 15:11:00,
2013-06-02 11:22:00,43.0,42.0,-100.00,WNW,298,16.0,-999.0,97,-99.99,,,-99.99,,2013-06-02 15:22:00,
2013-06-02 11:33:00,43.0,42.0,-100.00,NW,304,18.0,-999.0,97,-99.99,,,-99.99,,2013-06-02 15:33:00,
2013-06-02 11:43:00,43.0,42.0,-100.00,NW,304,18.0,-999.0,97,-99.99,,,-99.99,,2013-06-02 15:43:00,
2013-06-02 11:53:00,43.0,42.0,-100.00,NW,304,18.0,-999.0,96,-99.99,,,-99.99,,2013-06-02 15:53:00,
2013-06-02 12:03:00,44.0,42.0,-100.00,NW,304,18.0,-999.0,95,-99.99,,,-99.99,,2013-06-02 16:03:00,
2013-06-02 12:13:00,43.0,42.0,-100.00,NW,304,18.0,-999.0,95,-99.99,,,-99.99,,2013-06-02 16:13:00,
2013-06-02 12:23:00,43.0,42.0,-100.00,WNW,298,16.0,-999.0,95,-99.99,,,-99.99,,2013-06-02 16:23:00,
2013-06-02 12:33:00,44.0,42.0,-100.00,NW,304,17.0,-999.0,90,-99.99,,,-99.99,,2013-06-02 16:33:00,
2013-06-02 12:42:00,44.0,42.0,-100.00,NW,304,17.0,-999.0,90,-99.99,,,-99.99,,2013-06-02 16:42:00,
2013-06-02 12:52:00,45.0,41.0,-100.00,NW,304,17.0,-999.0,87,-99.99,,,-99.99,,2013-06-02 16:52:00,
2013-06-02 13:02:00,45.0,41.0,-100.00,NW,304,17.0,-999.0,87,-99.99,,,-99.99,,2013-06-02 17:02:00,
2013-06-02 13:12:00,45.0,41.0,-100.00,WNW,300,16.0,-999.0,86,-99.99,,,-99.99,,2013-06-02 17:12:00,
2013-06-02 13:23:00,45.0,41.0,-100.00,WNW,300,16.0,-999.0,86,-99.99,,,-99.99,,2013-06-02 17:23:00,
2013-06-02 13:32:00,45.0,41.0,-100.00,WNW,300,17.0,-999.0,85,-99.99,,,-99.99,,2013-06-02 17:32:00,
2013-06-02 13:42:00,45.0,41.0,-100.00,WNW,300,17.0,-999.0,85,-99.99,,,-99.99,,2013-06-02 17:42:00,
2013-06-02 13:52:00,46.0,41.0,-100.00,WNW,300,17.0,-999.0,84,-99.99,,,-99.99,,2013-06-02 17:52:00,
2013-06-02 14:02:00,46.0,41.0,-100.00,WNW,300,17.0,-999.0,84,-99.99,,,-99.99,,2013-06-02 18:02:00,
2013-06-02 14:11:00,45.0,40.0,-100.00,WNW,300,17.0,-999.0,83,-99.99,,,-99.99,,2013-06-02 18:11:00,
2013-06-02 14:21:00,46.0,41.0,-100.00,NW,308,17.0,-999.0,83,-99.99,,,-99.99,,2013-06-02 18:21:00,
2013-06-02 14:32:00,45.0,39.0,-100.00,NW,310,16.0,-999.0,81,-99.99,,,-99.99,,2013-06-02 18:32:00,
2013-06-02 14:42:00,45.0,39.0,-100.00,NW,310,16.0,-999.0,81,-99.99,,,-99.99,,2013-06-02 18:42:00,
2013-06-02 14:52:00,46.0,40.0,-100.00,NW,310,16.0,-999.0,80,-99.99,,,-99.99,,2013-06-02 18:52:00,
2013-06-02 15:02:00,47.0,41.0,-100.00,NW,310,16.0,-999.0,79,-99.99,,,-99.99,,2013-06-02 19:02:00,
2013-06-02 15:11:00,47.0,40.0,-100.00,NW,310,16.0,-999.0,76,-99.99,,,-99.99,,2013-06-02 19:11:00,
2013-06-02 15:22:00,47.0,40.0,-100.00,NW,318,18.0,-999.0,76,-99.99,,,-99.99,,2013-06-02 19:22:00,
2013-06-02 15:32:00,47.0,40.0,-100.00,NW,316,18.0,-999.0,76,-99.99,,,-99.99,,2013-06-02 19:32:00,
2013-06-02 15:42:00,47.0,40.0,-100.00,NW,316,18.0,-999.0,76,-99.99,,,-99.99,,2013-06-02 19:42:00,
2013-06-02 15:52:00,47.0,39.0,-100.00,NW,316,18.0,-999.0,75,-99.99,,,-99.99,,2013-06-02 19:52:00,
2013-06-02 16:02:00,47.0,39.0,-100.00,NW,316,18.0,-999.0,75,-99.99,,,-99.99,,2013-06-02 20:02:00,
2013-06-02 16:11:00,47.0,40.0,-100.00,NW,316,18.0,-999.0,74,-99.99,,,-99.99,,2013-06-02 20:11:00,
2013-06-02 16:22:00,48.0,40.0,-100.00,NW,314,18.0,-999.0,73,-99.99,,,-99.99,,2013-06-02 20:22:00,
2013-06-02 16:32:00,47.0,39.0,-100.00,NW,314,18.0,-999.0,73,-99.99,,,-99.99,,2013-06-02 20:32:00,
2013-06-02 16:42:00,47.0,39.0,-100.00,NW,314,18.0,-999.0,73,-99.99,,,-99.99,,2013-06-02 20:42:00,
2013-06-02 16:52:00,47.0,39.0,-100.00,NW,314,18.0,-999.0,73,-99.99,,,-99.99,,2013-06-02 20:52:00,
2013-06-02 17:02:00,47.0,39.0,-100.00,NW,314,18.0,-999.0,73,-99.99,,,-99.99,,2013-06-02 21:02:00,
2013-06-02 17:12:00,47.0,38.0,-100.00,NW,314,18.0,-999.0,72,-99.99,,,-99.99,,2013-06-02 21:12:00,
2013-06-02 17:22:00,47.0,38.0,-100.00,NW,310,18.0,-999.0,72,-99.99,,,-99.99,,2013-06-02 21:22:00,
2013-06-02 17:33:00,47.0,38.0,-100.00,NW,310,18.0,-999.0,70,-99.99,,,-99.99,,2013-06-02 21:33:00,
2013-06-02 17:42:00,47.0,38.0,-100.00,NW,310,18.0,-999.0,70,-99.99,,,-99.99,,2013-06-02 21:42:00,
2013-06-02 17:53:00,47.0,38.0,-100.00,NW,310,18.0,-999.0,71,-99.99,,,-99.99,,2013-06-02 21:53:00,
2013-06-02 18:03:00,47.0,38.0,-100.00,NW,310,18.0,-999.0,71,-99.99,,,-99.99,,2013-06-02 22:03:00,
2013-06-02 18:12:00,47.0,38.0,-100.00,NW,310,18.0,-999.0,72,-99.99,,,-99.99,,2013-06-02 22:12:00,
2013-06-02 18:23:00,47.0,38.0,-100.00,WNW,292,20.0,-999.0,71,-99.99,,,-99.99,,2013-06-02 22:23:00,
2013-06-02 18:33:00,47.0,37.0,-100.00,WNW,290,18.0,-999.0,68,-99.99,,,-99.99,,2013-06-02 22:33:00,
2013-06-02 18:42:00,47.0,37.0,-100.00,WNW,290,18.0,-999.0,68,-99.99,,,-99.99,,2013-06-02 22:42:00,
2013-06-02 18:52:00,47.0,37.0,-100.00,WNW,290,18.0,-999.0,69,-99.99,,,-99.99,,2013-06-02 22:52:00,
2013-06-02 19:02:00,47.0,37.0,-100.00,WNW,290,18.0,-999.0,69,-99.99,,,-99.99,,2013-06-02 23:02:00,
2013-06-02 19:12:00,47.0,37.0,-100.00,WNW,290,18.0,-999.0,69,-99.99,,,-99.99,,2013-06-02 23:12:00,
2013-06-02 19:22:00,47.0,37.0,-100.00,NW,304,17.0,-999.0,68,-99.99,,,-99.99,,2013-06-02 23:22:00,
2013-06-02 19:32:00,47.0,36.0,-100.00,NW,306,16.0,-999.0,67,-99.99,,,-99.99,,2013-06-02 23:32:00,
2013-06-02 19:42:00,47.0,36.0,-100.00,NW,306,16.0,-999.0,67,-99.99,,,-99.99,,2013-06-02 23:42:00,
2013-06-02 19:52:00,47.0,37.0,-100.00,NW,306,16.0,-999.0,67,-99.99,,,-99.99,,2013-06-02 23:52:00,
2013-06-02 20:01:00,47.0,37.0,-100.00,NW,306,16.0,-999.0,67,-99.99,,,-99.99,,2013-06-03 00:01:00,
2013-06-02 20:12:00,47.0,37.0,-100.00,NW,306,16.0,-999.0,67,-99.99,,,-99.99,,2013-06-03 00:12:00,
2013-06-02 20:22:00,47.0,37.0,-100.00,NW,310,15.0,-999.0,66,-99.99,,,-99.99,,2013-06-03 00:22:00,
2013-06-02 20:52:00,46.0,36.0,-100.00,NW,312,14.0,-999.0,66,-99.99,,,-99.99,,2013-06-03 00:52:00,
2013-06-02 21:01:00,46.0,36.0,-100.00,NW,312,14.0,-999.0,66,-99.99,,,-99.99,,2013-06-03 01:01:00,